JLY7645 SBBR-SBCT

Flight info

Callsign JLY7645
Flight time 1h 27m
Altitude 34000
Route KUKOL UZ5 UMGUL
Aircraft B738/M-SDE2E3FGHIRWXY/LB1

Departure

Time 2026-05-09 01:18
Airport Presidente Juscelino Kubitschek International Airport (SBBR)

Arrival

Time 2026-05-09 02:45
Airport Curitiba-Afonso Pena International Airport (SBCT)
Time Latitude Longitude Altitude Speed Heading
2026-05-09 00:44 -15.87123 -47.91815 3469 ft 0 kts 177°
2026-05-09 01:03 -15.87103 -47.91818 3469 ft 4 kts 173°
2026-05-09 01:03 -15.87086 -47.91821 3467 ft 4 kts 148°
2026-05-09 01:04 -15.87071 -47.91840 3466 ft 4 kts 99°
2026-05-09 01:04 -15.87070 -47.91851 3469 ft 1 kts 86°
2026-05-09 01:08 -15.87069 -47.91846 3469 ft 3 kts 86°
2026-05-09 01:08 -15.87067 -47.91798 3467 ft 10 kts 86°
2026-05-09 01:08 -15.87063 -47.91726 3469 ft 10 kts 86°
2026-05-09 01:09 -15.87069 -47.91681 3469 ft 3 kts 148°
2026-05-09 01:09 -15.87093 -47.91678 3469 ft 5 kts 174°
2026-05-09 01:09 -15.87136 -47.91674 3469 ft 6 kts 175°
2026-05-09 01:09 -15.87180 -47.91671 3468 ft 6 kts 179°
2026-05-09 01:10 -15.87240 -47.91671 3468 ft 10 kts 179°
2026-05-09 01:10 -15.87308 -47.91667 3469 ft 10 kts 176°
2026-05-09 01:10 -15.87374 -47.91663 3469 ft 9 kts 176°
2026-05-09 01:10 -15.87439 -47.91660 3469 ft 9 kts 176°
2026-05-09 01:11 -15.87502 -47.91656 3469 ft 9 kts 176°
2026-05-09 01:11 -15.87563 -47.91652 3469 ft 9 kts 176°
2026-05-09 01:11 -15.87640 -47.91646 3469 ft 14 kts 175°
2026-05-09 01:11 -15.87732 -47.91671 3469 ft 15 kts 242°
2026-05-09 01:12 -15.87747 -47.91793 3469 ft 22 kts 265°
2026-05-09 01:12 -15.87759 -47.91986 3470 ft 29 kts 266°
2026-05-09 01:12 -15.87773 -47.92189 3470 ft 27 kts 266°
2026-05-09 01:12 -15.87784 -47.92381 3470 ft 26 kts 266°
2026-05-09 01:13 -15.87795 -47.92560 3470 ft 24 kts 266°
2026-05-09 01:13 -15.87806 -47.92728 3471 ft 23 kts 266°
2026-05-09 01:13 -15.87817 -47.92889 3471 ft 22 kts 266°
2026-05-09 01:13 -15.87828 -47.93047 3470 ft 22 kts 267°
2026-05-09 01:14 -15.87836 -47.93200 3471 ft 21 kts 266°
2026-05-09 01:14 -15.87846 -47.93348 3471 ft 20 kts 266°
2026-05-09 01:14 -15.87856 -47.93492 3471 ft 20 kts 266°
2026-05-09 01:14 -15.87865 -47.93631 3472 ft 19 kts 266°
2026-05-09 01:15 -15.87873 -47.93761 3472 ft 18 kts 266°
2026-05-09 01:15 -15.87882 -47.93893 3472 ft 18 kts 266°
2026-05-09 01:15 -15.87929 -47.93994 3474 ft 14 kts 194°
2026-05-09 01:15 -15.87953 -47.93996 3472 ft 0 kts 180°
2026-05-09 01:16 -15.87969 -47.93996 3475 ft 4 kts 178°
2026-05-09 01:16 -15.88008 -47.93993 3479 ft 9 kts 174°
2026-05-09 01:17 -15.88042 -47.93762 3482 ft 40 kts 84°
2026-05-09 01:17 -15.88026 -47.93350 3475 ft 85 kts 85°
2026-05-09 01:17 -15.87970 -47.92518 3476 ft 144 kts 86°
2026-05-09 01:17 -15.87902 -47.91325 3623 ft 180 kts 88°
2026-05-09 01:18 -15.87873 -47.89959 4217 ft 193 kts 90°
2026-05-09 01:18 -15.88097 -47.88612 5027 ft 192 kts 121°
2026-05-09 01:18 -15.89176 -47.87736 5440 ft 215 kts 162°
2026-05-09 01:18 -15.90747 -47.87608 5633 ft 238 kts 175°
2026-05-09 01:19 -15.92465 -47.87485 5886 ft 255 kts 172°
2026-05-09 01:19 -15.94286 -47.87265 6115 ft 274 kts 172°
2026-05-09 01:19 -15.96211 -47.87538 6547 ft 289 kts 206°
2026-05-09 01:19 -15.97869 -47.88717 7350 ft 289 kts 218°
2026-05-09 01:20 -15.99448 -47.90018 8145 ft 290 kts 219°
2026-05-09 01:20 -16.01035 -47.91333 8910 ft 293 kts 219°
2026-05-09 01:20 -16.02637 -47.92648 9653 ft 297 kts 218°
2026-05-09 01:20 -16.04283 -47.93979 10375 ft 301 kts 218°
2026-05-09 01:21 -16.05991 -47.95347 10649 ft 322 kts 218°
2026-05-09 01:21 -16.07831 -47.96810 10815 ft 344 kts 218°
2026-05-09 01:21 -16.09795 -47.98360 10954 ft 365 kts 218°
2026-05-09 01:21 -16.11875 -47.99994 11089 ft 384 kts 217°
2026-05-09 01:22 -16.14044 -48.01695 11367 ft 395 kts 217°
2026-05-09 01:22 -16.16254 -48.03424 11882 ft 398 kts 217°
2026-05-09 01:22 -16.18446 -48.05138 12416 ft 402 kts 217°
2026-05-09 01:22 -16.20691 -48.06893 12918 ft 406 kts 217°
2026-05-09 01:23 -16.22960 -48.08668 13409 ft 410 kts 217°
2026-05-09 01:23 -16.25251 -48.10460 13898 ft 414 kts 217°
2026-05-09 01:23 -16.27563 -48.12269 14326 ft 417 kts 217°
2026-05-09 01:23 -16.29893 -48.14093 14779 ft 420 kts 217°
2026-05-09 01:24 -16.32233 -48.15926 15222 ft 423 kts 217°
2026-05-09 01:24 -16.34590 -48.17772 15638 ft 425 kts 217°
2026-05-09 01:24 -16.36963 -48.19632 16076 ft 428 kts 217°
2026-05-09 01:24 -16.39350 -48.21503 16487 ft 431 kts 217°
2026-05-09 01:25 -16.41748 -48.23383 16883 ft 433 kts 217°
2026-05-09 01:25 -16.44163 -48.25278 17291 ft 435 kts 217°
2026-05-09 01:25 -16.46589 -48.27182 17673 ft 438 kts 217°
2026-05-09 01:25 -16.49028 -48.29097 18034 ft 441 kts 217°
2026-05-09 01:26 -16.51487 -48.31027 18378 ft 443 kts 217°
2026-05-09 01:26 -16.53957 -48.32967 18685 ft 445 kts 217°
2026-05-09 01:26 -16.56431 -48.34912 19019 ft 446 kts 217°
2026-05-09 01:26 -16.58917 -48.36866 19357 ft 447 kts 217°
2026-05-09 01:27 -16.61405 -48.38823 19676 ft 449 kts 217°
2026-05-09 01:27 -16.63900 -48.40785 19980 ft 450 kts 217°
2026-05-09 01:27 -16.66444 -48.42704 20280 ft 452 kts 212°
2026-05-09 01:27 -16.69260 -48.44172 20576 ft 455 kts 201°
2026-05-09 01:28 -16.72301 -48.45099 20902 ft 456 kts 192°
2026-05-09 01:28 -16.75457 -48.45498 21190 ft 458 kts 185°
2026-05-09 01:28 -16.78602 -48.45738 21444 ft 461 kts 184°
2026-05-09 01:28 -16.81809 -48.45962 21689 ft 463 kts 184°
2026-05-09 01:29 -16.85068 -48.46194 21955 ft 464 kts 185°
2026-05-09 01:29 -16.88294 -48.46436 22217 ft 466 kts 185°
2026-05-09 01:29 -16.91533 -48.46692 22471 ft 467 kts 185°
2026-05-09 01:29 -16.94737 -48.46954 22710 ft 469 kts 185°
2026-05-09 01:30 -16.98041 -48.47229 22955 ft 471 kts 185°
2026-05-09 01:30 -17.01310 -48.47505 23193 ft 472 kts 185°
2026-05-09 01:30 -17.04588 -48.47782 23422 ft 474 kts 185°
2026-05-09 01:30 -17.07838 -48.48056 23638 ft 475 kts 185°
2026-05-09 01:31 -17.11139 -48.48335 23825 ft 477 kts 185°
2026-05-09 01:31 -17.14448 -48.48613 24016 ft 478 kts 186°
2026-05-09 01:31 -17.17762 -48.48892 24207 ft 479 kts 186°
2026-05-09 01:31 -17.21090 -48.49172 24389 ft 480 kts 186°
2026-05-09 01:32 -17.24427 -48.49453 24561 ft 482 kts 186°
2026-05-09 01:32 -17.27771 -48.49734 24734 ft 483 kts 186°
2026-05-09 01:32 -17.31129 -48.50017 24916 ft 484 kts 186°
2026-05-09 01:32 -17.34486 -48.50300 25100 ft 485 kts 186°
2026-05-09 01:33 -17.37852 -48.50584 25278 ft 486 kts 186°
2026-05-09 01:33 -17.41227 -48.50868 25442 ft 487 kts 186°
2026-05-09 01:33 -17.44611 -48.51154 25615 ft 488 kts 186°
2026-05-09 01:33 -17.47998 -48.51439 25791 ft 489 kts 186°
2026-05-09 01:34 -17.51398 -48.51726 25946 ft 491 kts 186°
2026-05-09 01:34 -17.54805 -48.52014 26097 ft 492 kts 186°
2026-05-09 01:34 -17.58220 -48.52303 26256 ft 493 kts 186°
2026-05-09 01:34 -17.61643 -48.52592 26415 ft 494 kts 186°
2026-05-09 01:35 -17.65067 -48.52881 26578 ft 495 kts 186°
2026-05-09 01:35 -17.68502 -48.53172 26737 ft 496 kts 186°
2026-05-09 01:35 -17.71901 -48.53460 26884 ft 497 kts 187°
2026-05-09 01:35 -17.75348 -48.53760 27066 ft 497 kts 187°
2026-05-09 01:36 -17.78783 -48.54066 27284 ft 497 kts 187°
2026-05-09 01:36 -17.82226 -48.54375 27544 ft 496 kts 187°
2026-05-09 01:36 -17.85659 -48.54683 27809 ft 494 kts 187°
2026-05-09 01:36 -17.89083 -48.54990 28065 ft 494 kts 187°
2026-05-09 01:37 -17.92506 -48.55296 28290 ft 494 kts 187°
2026-05-09 01:37 -17.95933 -48.55602 28534 ft 493 kts 187°
2026-05-09 01:37 -17.99349 -48.55907 28798 ft 492 kts 187°
2026-05-09 01:37 -18.02757 -48.56210 29075 ft 492 kts 188°
2026-05-09 01:38 -18.06166 -48.56515 29325 ft 491 kts 188°
2026-05-09 01:38 -18.09570 -48.56819 29593 ft 491 kts 188°
2026-05-09 01:38 -18.12971 -48.57122 29889 ft 490 kts 188°
2026-05-09 01:38 -18.16363 -48.57425 30163 ft 489 kts 188°
2026-05-09 01:39 -18.19752 -48.57728 30417 ft 488 kts 188°
2026-05-09 01:39 -18.23127 -48.58030 30710 ft 486 kts 188°
2026-05-09 01:39 -18.26490 -48.58331 31044 ft 483 kts 188°
2026-05-09 01:39 -18.29834 -48.58630 31349 ft 482 kts 188°
2026-05-09 01:40 -18.33167 -48.58931 31621 ft 481 kts 188°
2026-05-09 01:40 -18.36491 -48.59236 31918 ft 479 kts 188°
2026-05-09 01:40 -18.39803 -48.59542 32247 ft 476 kts 188°
2026-05-09 01:40 -18.43098 -48.59846 32566 ft 474 kts 188°
2026-05-09 01:41 -18.46380 -48.60149 32883 ft 472 kts 189°
2026-05-09 01:41 -18.49648 -48.60451 33193 ft 471 kts 189°
2026-05-09 01:41 -18.52903 -48.60752 33508 ft 469 kts 189°
2026-05-09 01:41 -18.56151 -48.61051 33791 ft 468 kts 189°
2026-05-09 01:42 -18.59391 -48.61350 34013 ft 467 kts 189°
2026-05-09 01:42 -18.62641 -48.61651 34006 ft 470 kts 189°
2026-05-09 01:42 -18.69091 -48.62246 34017 ft 467 kts 189°
2026-05-09 01:43 -18.75548 -48.62831 34028 ft 465 kts 189°
2026-05-09 01:43 -18.81984 -48.63413 34031 ft 463 kts 189°
2026-05-09 01:44 -18.88401 -48.63995 34022 ft 463 kts 189°
2026-05-09 01:44 -18.94808 -48.64578 34029 ft 462 kts 189°
2026-05-09 01:45 -19.01228 -48.65163 34029 ft 463 kts 189°
2026-05-09 01:45 -19.07657 -48.65748 34029 ft 464 kts 190°
2026-05-09 01:46 -19.14097 -48.66335 34036 ft 465 kts 190°
2026-05-09 01:46 -19.20561 -48.66944 34029 ft 466 kts 190°
2026-05-09 01:47 -19.26976 -48.67610 34016 ft 467 kts 191°
2026-05-09 01:47 -19.33460 -48.68291 34036 ft 468 kts 191°
2026-05-09 01:48 -19.39961 -48.68968 34013 ft 469 kts 190°
2026-05-09 01:48 -19.46476 -48.69641 34029 ft 470 kts 190°
2026-05-09 01:49 -19.52997 -48.70315 34011 ft 471 kts 190°
2026-05-09 01:49 -19.59528 -48.70991 34015 ft 471 kts 190°
2026-05-09 01:50 -19.66055 -48.71666 34007 ft 471 kts 190°
2026-05-09 01:50 -19.72584 -48.72343 34002 ft 471 kts 190°
2026-05-09 01:51 -19.79074 -48.73016 33999 ft 471 kts 190°
2026-05-09 01:51 -19.84541 -48.73584 34005 ft 471 kts 190°
2026-05-09 01:52 -19.92115 -48.74371 33992 ft 471 kts 190°
2026-05-09 01:52 -19.98628 -48.75048 33993 ft 470 kts 190°
2026-05-09 01:53 -20.04036 -48.75611 33992 ft 470 kts 190°
2026-05-09 01:53 -20.10536 -48.76288 33992 ft 469 kts 191°
2026-05-09 01:54 -20.17045 -48.76967 33983 ft 469 kts 191°
2026-05-09 01:54 -20.23540 -48.77644 33990 ft 469 kts 191°
2026-05-09 01:55 -20.30037 -48.78323 33986 ft 469 kts 191°
2026-05-09 01:55 -20.36534 -48.79002 33990 ft 469 kts 191°
2026-05-09 01:56 -20.43037 -48.79682 33981 ft 470 kts 191°
2026-05-09 01:56 -20.49554 -48.80365 33980 ft 471 kts 191°
2026-05-09 01:57 -20.56087 -48.81050 33983 ft 472 kts 191°
2026-05-09 01:57 -20.62632 -48.81736 33991 ft 473 kts 191°
2026-05-09 01:58 -20.69183 -48.82432 33984 ft 474 kts 193°
2026-05-09 01:58 -20.75685 -48.83493 33987 ft 473 kts 195°
2026-05-09 01:59 -20.82204 -48.84584 33980 ft 475 kts 194°
2026-05-09 01:59 -20.88747 -48.85629 33990 ft 476 kts 194°
2026-05-09 02:00 -20.95311 -48.86671 33967 ft 477 kts 194°
2026-05-09 02:00 -21.01876 -48.87719 33973 ft 477 kts 194°
2026-05-09 02:01 -21.08438 -48.88769 33981 ft 477 kts 194°
2026-05-09 02:01 -21.14999 -48.89821 33977 ft 476 kts 194°
2026-05-09 02:02 -21.21560 -48.90873 33957 ft 477 kts 194°
2026-05-09 02:02 -21.28132 -48.91921 33966 ft 477 kts 194°
2026-05-09 02:03 -21.34702 -48.92965 33967 ft 478 kts 194°
2026-05-09 02:03 -21.41275 -48.94012 33968 ft 478 kts 194°
2026-05-09 02:04 -21.47863 -48.95064 33958 ft 479 kts 194°
2026-05-09 02:04 -21.54464 -48.96119 33953 ft 480 kts 194°
2026-05-09 02:05 -21.61069 -48.97175 33953 ft 481 kts 194°
2026-05-09 02:05 -21.67669 -48.98329 33964 ft 478 kts 198°
2026-05-09 02:06 -21.74080 -48.99973 33956 ft 477 kts 200°
2026-05-09 02:07 -21.83786 -49.02400 33951 ft 478 kts 199°
2026-05-09 02:07 -21.90267 -49.03976 33954 ft 477 kts 199°
2026-05-09 02:08 -21.96744 -49.05562 33960 ft 477 kts 199°
2026-05-09 02:08 -22.03222 -49.07156 33956 ft 477 kts 199°
2026-05-09 02:09 -22.09700 -49.08750 33969 ft 477 kts 199°
2026-05-09 02:09 -22.16173 -49.10347 33983 ft 477 kts 199°
2026-05-09 02:10 -22.22649 -49.11949 33985 ft 478 kts 199°
2026-05-09 02:10 -22.29127 -49.13553 33993 ft 477 kts 199°
2026-05-09 02:11 -22.35603 -49.15158 33996 ft 478 kts 199°
2026-05-09 02:11 -22.42074 -49.16802 33986 ft 477 kts 201°
2026-05-09 02:12 -22.48471 -49.18675 33997 ft 476 kts 201°
2026-05-09 02:12 -22.54823 -49.20536 33958 ft 477 kts 201°
2026-05-09 02:13 -22.61251 -49.22343 33951 ft 477 kts 200°
2026-05-09 02:13 -22.67702 -49.24087 33947 ft 477 kts 200°
2026-05-09 02:14 -22.74146 -49.25837 33955 ft 477 kts 200°
2026-05-09 02:14 -22.80577 -49.27597 33968 ft 476 kts 200°
2026-05-09 02:15 -22.86996 -49.29358 33963 ft 475 kts 200°
2026-05-09 02:15 -22.93405 -49.31119 33970 ft 474 kts 200°
2026-05-09 02:16 -22.99787 -49.32886 33958 ft 473 kts 200°
2026-05-09 02:16 -23.06155 -49.34651 33968 ft 472 kts 200°
2026-05-09 02:17 -23.12504 -49.36412 33958 ft 470 kts 200°
2026-05-09 02:17 -23.18837 -49.38170 33959 ft 469 kts 200°
2026-05-09 02:18 -23.25180 -49.39853 33965 ft 470 kts 199°
2026-05-09 02:18 -23.31525 -49.41341 33973 ft 470 kts 199°
2026-05-09 02:19 -23.37904 -49.42857 33971 ft 469 kts 199°
2026-05-09 02:19 -23.44258 -49.44452 33959 ft 467 kts 201°
2026-05-09 02:20 -23.50495 -49.46423 33968 ft 466 kts 203°
2026-05-09 02:20 -23.56723 -49.48453 33981 ft 468 kts 203°
2026-05-09 02:21 -23.62991 -49.50437 33970 ft 470 kts 202°
2026-05-09 02:21 -23.69342 -49.52230 33966 ft 473 kts 200°
2026-05-09 02:22 -23.75825 -49.53640 33935 ft 487 kts 185°
2026-05-09 02:22 -23.82625 -49.53025 33971 ft 493 kts 180°
2026-05-09 02:23 -23.89467 -49.52299 33964 ft 494 kts 180°
2026-05-09 02:23 -23.96316 -49.51641 33971 ft 494 kts 181°
2026-05-09 02:24 -24.03172 -49.51025 33972 ft 494 kts 181°
2026-05-09 02:24 -24.10022 -49.50418 33971 ft 494 kts 181°
2026-05-09 02:25 -24.16830 -49.49811 33975 ft 494 kts 181°
2026-05-09 02:25 -24.23676 -49.49197 33976 ft 494 kts 181°
2026-05-09 02:26 -24.30539 -49.48581 33979 ft 494 kts 180°
2026-05-09 02:26 -24.37398 -49.47965 33988 ft 495 kts 180°
2026-05-09 02:27 -24.44273 -49.47346 33975 ft 495 kts 180°
2026-05-09 02:27 -24.47732 -49.47036 33370 ft 503 kts 180°
2026-05-09 02:27 -24.51210 -49.46723 32729 ft 500 kts 180°
2026-05-09 02:27 -24.54680 -49.46409 32012 ft 500 kts 180°
2026-05-09 02:28 -24.58153 -49.46095 31268 ft 501 kts 180°
2026-05-09 02:28 -24.61628 -49.45781 30500 ft 502 kts 180°
2026-05-09 02:28 -24.65120 -49.45466 29630 ft 504 kts 180°
2026-05-09 02:28 -24.68622 -49.45150 28713 ft 505 kts 180°
2026-05-09 02:29 -24.72118 -49.44833 27822 ft 505 kts 180°
2026-05-09 02:29 -24.75623 -49.44516 26908 ft 505 kts 180°
2026-05-09 02:29 -24.79133 -49.44198 25973 ft 506 kts 180°
2026-05-09 02:29 -24.82636 -49.43881 25247 ft 503 kts 180°
2026-05-09 02:30 -24.86109 -49.43564 24540 ft 499 kts 180°
2026-05-09 02:30 -24.89550 -49.43252 23867 ft 494 kts 180°
2026-05-09 02:30 -24.92918 -49.42946 23125 ft 490 kts 180°
2026-05-09 02:30 -24.96303 -49.42639 22399 ft 485 kts 180°
2026-05-09 02:31 -24.99650 -49.42335 21715 ft 480 kts 180°
2026-05-09 02:31 -25.02960 -49.42035 21060 ft 475 kts 180°
2026-05-09 02:31 -25.06239 -49.41738 20400 ft 471 kts 180°
2026-05-09 02:31 -25.09487 -49.41443 19750 ft 467 kts 180°
2026-05-09 02:32 -25.12717 -49.41151 19088 ft 464 kts 180°
2026-05-09 02:32 -25.15921 -49.40861 18440 ft 461 kts 180°
2026-05-09 02:32 -25.19113 -49.40570 17709 ft 459 kts 180°
2026-05-09 02:32 -25.22281 -49.40301 17075 ft 454 kts 181°
2026-05-09 02:33 -25.25423 -49.40130 16408 ft 450 kts 182°
2026-05-09 02:33 -25.28544 -49.40008 15753 ft 447 kts 182°
2026-05-09 02:33 -25.31642 -49.39891 15174 ft 443 kts 182°
2026-05-09 02:33 -25.34722 -49.39764 14534 ft 441 kts 182°
2026-05-09 02:34 -25.37780 -49.39626 13923 ft 439 kts 182°
2026-05-09 02:34 -25.40823 -49.39481 13387 ft 433 kts 182°
2026-05-09 02:34 -25.43780 -49.39335 13213 ft 418 kts 182°
2026-05-09 02:34 -25.46626 -49.38855 12997 ft 414 kts 164°
2026-05-09 02:35 -25.49177 -49.37429 12583 ft 414 kts 144°
2026-05-09 02:35 -25.51296 -49.35282 12101 ft 412 kts 134°
2026-05-09 02:35 -25.53286 -49.33004 11588 ft 410 kts 134°
2026-05-09 02:35 -25.55261 -49.30724 11086 ft 409 kts 134°
2026-05-09 02:36 -25.57205 -49.28500 10585 ft 407 kts 133°
2026-05-09 02:36 -25.59208 -49.26239 10069 ft 405 kts 134°
2026-05-09 02:36 -25.61148 -49.24066 9897 ft 391 kts 134°
2026-05-09 02:36 -25.63006 -49.21990 9817 ft 369 kts 135°
2026-05-09 02:37 -25.64765 -49.20020 9658 ft 351 kts 135°
2026-05-09 02:37 -25.66436 -49.18148 9510 ft 329 kts 135°
2026-05-09 02:37 -25.68002 -49.16392 9232 ft 314 kts 134°
2026-05-09 02:37 -25.69479 -49.14662 8815 ft 304 kts 124°
2026-05-09 02:38 -25.70309 -49.12607 8404 ft 282 kts 90°
2026-05-09 02:38 -25.70267 -49.10610 8302 ft 241 kts 66°
2026-05-09 02:38 -25.69783 -49.08924 7940 ft 221 kts 52°
2026-05-09 02:38 -25.69020 -49.07562 7690 ft 192 kts 36°
2026-05-09 02:39 -25.68128 -49.06526 7324 ft 183 kts 31°
2026-05-09 02:39 -25.67219 -49.05553 6905 ft 179 kts 30°
2026-05-09 02:39 -25.66213 -49.04910 6469 ft 157 kts
2026-05-09 02:39 -25.65519 -49.04814 6257 ft 144 kts 351°
2026-05-09 02:40 -25.64278 -49.05128 5727 ft 132 kts 326°
2026-05-09 02:40 -25.63602 -49.05749 5659 ft 135 kts 325°
2026-05-09 02:40 -25.63073 -49.06179 5595 ft 143 kts 321°
2026-05-09 02:40 -25.62351 -49.06913 5398 ft 140 kts 317°
2026-05-09 02:41 -25.61693 -49.07634 5237 ft 129 kts 316°
2026-05-09 02:41 -25.61099 -49.08299 5098 ft 117 kts 316°
2026-05-09 02:41 -25.60547 -49.08918 4959 ft 110 kts 317°
2026-05-09 02:41 -25.60017 -49.09514 4820 ft 108 kts 317°
2026-05-09 02:42 -25.59483 -49.10113 4669 ft 112 kts 317°
2026-05-09 02:42 -25.58931 -49.10735 4546 ft 115 kts 316°
2026-05-09 02:42 -25.58356 -49.11384 4340 ft 121 kts 319°
2026-05-09 02:42 -25.57746 -49.12065 4195 ft 128 kts 316°
2026-05-09 02:43 -25.57136 -49.12755 4023 ft 123 kts 317°
2026-05-09 02:43 -25.56534 -49.13430 3884 ft 123 kts 316°
2026-05-09 02:43 -25.55927 -49.14115 3715 ft 129 kts 317°
2026-05-09 02:43 -25.55274 -49.14851 3498 ft 138 kts 319°
2026-05-09 02:44 -25.54583 -49.15627 3309 ft 147 kts 319°
2026-05-09 02:44 -25.53863 -49.16436 3091 ft 147 kts 317°
2026-05-09 02:44 -25.53177 -49.17205 2987 ft 130 kts 316°
2026-05-09 02:44 -25.52636 -49.17810 2987 ft 91 kts 314°
2026-05-09 02:45 -25.52346 -49.18134 2992 ft 21 kts 313°
2026-05-09 02:45 -25.52272 -49.18219 2992 ft 15 kts 307°
2026-05-09 02:45 -25.52248 -49.18274 2992 ft 5 kts 353°
2026-05-09 02:45 -25.52241 -49.18254 2992 ft 3 kts 108°
2026-05-09 02:46 -25.52272 -49.18214 2992 ft 14 kts 137°
2026-05-09 02:46 -25.52365 -49.18113 2991 ft 20 kts 134°
2026-05-09 02:46 -25.52460 -49.18005 2990 ft 20 kts 134°
2026-05-09 02:46 -25.52573 -49.17977 2989 ft 19 kts 213°
2026-05-09 02:47 -25.52699 -49.17998 2990 ft 18 kts 183°
2026-05-09 02:47 -25.52819 -49.17995 2988 ft 15 kts 172°
2026-05-09 02:47 -25.52905 -49.17943 2989 ft 14 kts 139°
2026-05-09 02:47 -25.52968 -49.17867 2990 ft 13 kts 116°
2026-05-09 02:48 -25.52979 -49.17768 2989 ft 13 kts 90°
2026-05-09 02:48 -25.52982 -49.17670 2988 ft 13 kts 102°
2026-05-09 02:48 -25.53030 -49.17595 2988 ft 12 kts 138°
2026-05-09 02:48 -25.53090 -49.17530 2987 ft 12 kts 134°
2026-05-09 02:49 -25.53147 -49.17465 2987 ft 12 kts 134°
2026-05-09 02:49 -25.53204 -49.17404 2986 ft 11 kts 137°
2026-05-09 02:49 -25.53258 -49.17343 2986 ft 11 kts 133°
2026-05-09 02:49 -25.53312 -49.17285 2985 ft 11 kts 135°
2026-05-09 02:50 -25.53363 -49.17227 2985 ft 10 kts 133°
2026-05-09 02:50 -25.53411 -49.17170 2984 ft 10 kts 134°
2026-05-09 02:50 -25.53467 -49.17133 2983 ft 10 kts 184°
2026-05-09 02:50 -25.53519 -49.17178 2984 ft 10 kts 224°
2026-05-09 02:51 -25.53556 -49.17217 2984 ft 4 kts 224°
2026-05-09 02:51 -25.53559 -49.17220 2984 ft 0 kts 225°